Location: Bu�n Treun
(12.1333°N, 108.3167°E)
Time: 00:10:56
(UTC+00:00)

H-2A R/B - Pass Details

Date: 13 July 2020
Orbit: 733 x 837 km, 98.2° (Epoch: 03 August)

Event Time Altitude Azimuth Distance (km) Brightness Sun altitude
Exits shadow 12:09:20 - 155° (SSE) 2,510 4.2 -12.8°
Reaches altitude 10° 12:09:32 10° 155° (SSE) 2,434 4.1 -12.8°
Maximum altitude 12:14:50 57° 77° (ENE) 974 2.3 -14.0°
Drops below altitude 10° 12:20:09 10° 359° (N) 2,441 5.0 -15.1°
Sets 12:22:33 0° 355° (N) 3,370 5.8 -15.6°
